TimeCDT,TemperatureF,Dew PointF,Humidity,Sea Level PressureIn,VisibilityMPH,Wind Direction,Wind SpeedMPH,Gust SpeedMPH,PrecipitationIn,Events,Conditions,WindDirDegrees,DateUTC
12:15 AM,62.6,55.4,77,30.05,10.0,South,8.1,-,0.00,,Clear,170,2012-10-22 05:15:00
12:35 AM,60.8,55.4,82,30.05,10.0,South,6.9,-,0.00,,Clear,170,2012-10-22 05:35:00
1:15 AM,60.8,55.4,82,30.05,10.0,South,6.9,-,N/A,,Clear,170,2012-10-22 06:15:00
1:35 AM,59.0,55.4,88,30.05,10.0,South,5.8,-,N/A,,Clear,180,2012-10-22 06:35:00
1:55 AM,60.8,55.4,82,30.05,8.0,South,5.8,-,N/A,,Clear,170,2012-10-22 06:55:00
2:15 AM,59.0,55.4,88,30.05,10.0,South,6.9,-,0.00,,Clear,170,2012-10-22 07:15:00
2:35 AM,59.0,55.4,88,30.06,8.0,South,6.9,-,N/A,,Clear,170,2012-10-22 07:35:00
2:55 AM,60.8,55.4,82,30.06,9.0,South,5.8,-,N/A,,Clear,170,2012-10-22 07:55:00
3:15 AM,59.0,55.4,88,30.06,9.0,South,5.8,-,0.00,,Clear,170,2012-10-22 08:15:00
3:35 AM,59.0,55.4,88,30.07,10.0,SSE,4.6,-,0.00,,Clear,160,2012-10-22 08:35:00
3:55 AM,59.0,55.4,88,30.07,10.0,SSE,5.8,-,0.00,,Clear,150,2012-10-22 08:55:00
4:15 AM,57.2,55.4,94,30.07,10.0,SSE,5.8,-,0.00,,Clear,150,2012-10-22 09:15:00
4:35 AM,57.2,55.4,94,30.07,10.0,SSE,6.9,-,N/A,,Clear,150,2012-10-22 09:35:00
4:55 AM,57.2,55.4,94,30.08,10.0,Calm,Calm,-,0.00,,Clear,0,2012-10-22 09:55:00
5:15 AM,57.2,55.4,94,30.08,10.0,Calm,Calm,-,N/A,,Clear,0,2012-10-22 10:15:00
5:35 AM,57.2,55.4,94,30.09,10.0,SSE,5.8,-,0.00,,Clear,160,2012-10-22 10:35:00
5:55 AM,57.2,55.4,94,30.10,10.0,SSE,5.8,-,0.00,,Clear,160,2012-10-22 10:55:00
6:15 AM,57.2,55.4,94,30.10,10.0,SSE,6.9,-,N/A,,Clear,160,2012-10-22 11:15:00
6:50 AM,57.2,55.4,94,30.11,10.0,South,9.2,-,N/A,,Clear,170,2012-10-22 11:50:00
8:50 AM,60.8,57.2,88,30.16,10.0,South,9.2,-,N/A,,Partly Cloudy,180,2012-10-22 13:50:00
9:50 AM,66.2,59.0,78,30.16,10.0,South,9.2,-,N/A,,Clear,190,2012-10-22 14:50:00
10:50 AM,71.6,57.2,60,30.16,10.0,SSW,11.5,-,N/A,,Partly Cloudy,210,2012-10-22 15:50:00
11:50 AM,75.2,53.6,47,30.14,10.0,SSW,11.5,20.7,N/A,,Clear,200,2012-10-22 16:50:00
12:50 PM,78.8,50.0,36,30.11,10.0,SSW,10.4,19.6,N/A,,Clear,200,2012-10-22 17:50:00
1:50 PM,80.6,50.0,34,30.08,10.0,South,11.5,-,N/A,,Partly Cloudy,190,2012-10-22 18:50:00
2:50 PM,80.6,51.8,37,30.06,10.0,SSW,10.4,-,N/A,,Scattered Clouds,200,2012-10-22 19:50:00
3:50 PM,78.8,48.2,34,30.06,10.0,SW,16.1,-,N/A,,Scattered Clouds,220,2012-10-22 20:50:00
4:50 PM,78.8,50.0,36,30.07,10.0,SSW,8.1,-,N/A,,Scattered Clouds,200,2012-10-22 21:50:00
5:45 PM,73.4,50.0,44,30.07,10.0,Calm,Calm,-,N/A,,Scattered Clouds,0,2012-10-22 22:45:00
6:55 PM,66.2,51.8,60,30.08,10.0,Calm,Calm,-,N/A,,Scattered Clouds,0,2012-10-22 23:55:00
7:55 PM,64.4,53.6,68,30.08,10.0,Calm,Calm,-,N/A,,Scattered Clouds,0,2012-10-23 00:55:00
8:55 PM,64.4,51.8,64,30.08,10.0,SSE,3.5,-,0.00,,Clear,150,2012-10-23 01:55:00
9:15 PM,64.4,51.8,64,30.08,9.0,SSE,5.8,-,0.00,,Clear,150,2012-10-23 02:15:00
9:35 PM,64.4,51.8,64,30.08,10.0,SSE,5.8,-,N/A,,Clear,160,2012-10-23 02:35:00
9:55 PM,62.6,51.8,68,30.08,10.0,SSE,6.9,-,0.00,,Clear,160,2012-10-23 02:55:00
10:35 PM,64.4,51.8,64,30.06,10.0,SSE,8.1,-,0.00,,Clear,160,2012-10-23 03:35:00
10:55 PM,64.4,51.8,64,30.06,7.0,SSE,6.9,-,0.00,,Clear,160,2012-10-23 03:55:00
11:15 PM,64.4,51.8,64,30.06,10.0,SSE,8.1,-,0.00,,Clear,160,2012-10-23 04:15:00
11:35 PM,62.6,53.6,72,30.05,10.0,SSE,8.1,-,0.00,,Clear,160,2012-10-23 04:35:00
11:55 PM,62.6,53.6,72,30.05,8.0,SSE,6.9,-,0.00,,Clear,160,2012-10-23 04:55:00